TAP1438 LPPT-GMMN

Flight info

Callsign TAP1438
Flight time 1h 1m
Altitude 39000
Route DUZOP DCT AMSEL UR722 LAKAM
Aircraft A320/M-SDE3FGHIRWY/LB1

Departure

Time 2026-05-04 18:26
Airport Lisbon Humberto Delgado Airport (LPPT)

Arrival

Time 2026-05-04 19:27
Airport Mohammed V International Airport (GMMN)
Time Latitude Longitude Altitude Speed Heading
2026-05-04 17:59 38.77611 -9.13188 337 ft 0 kts 78°
2026-05-04 18:07 38.77611 -9.13189 337 ft 0 kts 78°
2026-05-04 18:17 38.77604 -9.13231 335 ft 4 kts 77°
2026-05-04 18:17 38.77598 -9.13265 336 ft 4 kts 79°
2026-05-04 18:17 38.77600 -9.13319 335 ft 2 kts 179°
2026-05-04 18:18 38.77603 -9.13319 335 ft 3 kts 183°
2026-05-04 18:20 38.77577 -9.13318 335 ft 9 kts 176°
2026-05-04 18:20 38.77521 -9.13305 337 ft 10 kts 167°
2026-05-04 18:20 38.77415 -9.13275 338 ft 17 kts 168°
2026-05-04 18:21 38.77304 -9.13250 337 ft 15 kts 172°
2026-05-04 18:21 38.77201 -9.13225 333 ft 16 kts 168°
2026-05-04 18:21 38.77064 -9.13187 337 ft 21 kts 168°
2026-05-04 18:21 38.76928 -9.13151 335 ft 19 kts 168°
2026-05-04 18:22 38.76805 -9.13135 339 ft 16 kts 206°
2026-05-04 18:22 38.76766 -9.13259 340 ft 16 kts 257°
2026-05-04 18:22 38.76716 -9.13407 351 ft 19 kts 218°
2026-05-04 18:22 38.76646 -9.13535 349 ft 18 kts 257°
2026-05-04 18:23 38.76619 -9.13701 346 ft 20 kts 259°
2026-05-04 18:23 38.76590 -9.13879 346 ft 21 kts 258°
2026-05-04 18:23 38.76562 -9.14062 345 ft 20 kts 259°
2026-05-04 18:23 38.76580 -9.14196 337 ft 13 kts 291°
2026-05-04 18:24 38.76602 -9.14262 335 ft 0 kts 293°
2026-05-04 18:25 38.76603 -9.14266 338 ft 3 kts 293°
2026-05-04 18:25 38.76625 -9.14332 334 ft 12 kts 293°
2026-05-04 18:25 38.76693 -9.14362 337 ft 12 kts 18°
2026-05-04 18:25 38.76850 -9.14285 347 ft 55 kts 22°
2026-05-04 18:26 38.77425 -9.13971 361 ft 121 kts 23°
2026-05-04 18:26 38.78359 -9.13502 616 ft 152 kts 24°
2026-05-04 18:26 38.79317 -9.12973 1455 ft 149 kts 18°
2026-05-04 18:26 38.80271 -9.12458 2205 ft 151 kts 15°
2026-05-04 18:27 38.81294 -9.11906 2601 ft 171 kts 19°
2026-05-04 18:27 38.82412 -9.11100 2946 ft 198 kts 24°
2026-05-04 18:27 38.83669 -9.10134 3421 ft 223 kts 25°
2026-05-04 18:27 38.85056 -9.09068 3913 ft 246 kts 26°
2026-05-04 18:28 38.86548 -9.07870 4740 ft 259 kts 34°
2026-05-04 18:28 38.87735 -9.06055 5626 ft 275 kts 60°
2026-05-04 18:28 38.88164 -9.03625 6540 ft 287 kts 91°
2026-05-04 18:28 38.87638 -9.01152 7438 ft 292 kts 118°
2026-05-04 18:29 38.86412 -8.99047 8294 ft 298 kts 139°
2026-05-04 18:29 38.84673 -8.97625 9269 ft 298 kts 161°
2026-05-04 18:29 38.82673 -8.97126 10123 ft 297 kts 186°
2026-05-04 18:29 38.80611 -8.97634 10574 ft 311 kts 205°
2026-05-04 18:30 38.76268 -8.99823 11071 ft 362 kts 195°
2026-05-04 18:30 38.73654 -8.99892 11280 ft 392 kts 172°
2026-05-04 18:30 38.70957 -8.99056 11811 ft 403 kts 168°
2026-05-04 18:31 38.68229 -8.98148 12510 ft 408 kts 168°
2026-05-04 18:31 38.65470 -8.97220 13225 ft 412 kts 168°
2026-05-04 18:31 38.62672 -8.96283 13895 ft 417 kts 169°
2026-05-04 18:31 38.59883 -8.95352 14483 ft 421 kts 169°
2026-05-04 18:32 38.57033 -8.94407 15094 ft 425 kts 169°
2026-05-04 18:32 38.54151 -8.93458 15680 ft 428 kts 170°
2026-05-04 18:32 38.51252 -8.92509 16242 ft 432 kts 170°
2026-05-04 18:32 38.48321 -8.91549 16830 ft 435 kts 170°
2026-05-04 18:33 38.45371 -8.90584 17409 ft 438 kts 170°
2026-05-04 18:33 38.42453 -8.89629 17971 ft 441 kts 170°
2026-05-04 18:33 38.39459 -8.88646 18510 ft 444 kts 171°
2026-05-04 18:33 38.36447 -8.87660 18997 ft 447 kts 171°
2026-05-04 18:34 38.33421 -8.86671 19471 ft 450 kts 171°
2026-05-04 18:34 38.30370 -8.85676 19916 ft 453 kts 171°
2026-05-04 18:34 38.27338 -8.84687 20367 ft 455 kts 171°
2026-05-04 18:34 38.24252 -8.83680 20808 ft 458 kts 171°
2026-05-04 18:35 38.21143 -8.82667 21233 ft 461 kts 171°
2026-05-04 18:35 38.18023 -8.81649 21654 ft 464 kts 171°
2026-05-04 18:35 38.14886 -8.80627 22076 ft 466 kts 171°
2026-05-04 18:35 38.11724 -8.79601 22498 ft 469 kts 171°
2026-05-04 18:36 38.08549 -8.78572 22893 ft 472 kts 171°
2026-05-04 18:36 38.05393 -8.77549 23284 ft 475 kts 171°
2026-05-04 18:36 38.02183 -8.76511 23664 ft 477 kts 172°
2026-05-04 18:36 37.98954 -8.75470 23966 ft 479 kts 172°
2026-05-04 18:37 37.95711 -8.74422 24078 ft 480 kts 172°
2026-05-04 18:37 37.92459 -8.73368 24300 ft 483 kts 172°
2026-05-04 18:37 37.89193 -8.72308 24632 ft 484 kts 172°
2026-05-04 18:37 37.85918 -8.71249 24932 ft 486 kts 172°
2026-05-04 18:38 37.82631 -8.70188 25250 ft 488 kts 172°
2026-05-04 18:38 37.79335 -8.69131 25550 ft 490 kts 172°
2026-05-04 18:38 37.76063 -8.68082 25841 ft 492 kts 172°
2026-05-04 18:38 37.72734 -8.67011 26118 ft 494 kts 172°
2026-05-04 18:39 37.69394 -8.65933 26411 ft 495 kts 172°
2026-05-04 18:39 37.66065 -8.64735 26817 ft 498 kts 167°
2026-05-04 18:39 37.62808 -8.63240 27183 ft 498 kts 166°
2026-05-04 18:39 37.59546 -8.61737 27589 ft 498 kts 166°
2026-05-04 18:40 37.56331 -8.60254 27999 ft 497 kts 166°
2026-05-04 18:40 37.53041 -8.58734 28408 ft 496 kts 166°
2026-05-04 18:40 37.49841 -8.57261 28802 ft 496 kts 166°
2026-05-04 18:40 37.46590 -8.55768 29228 ft 495 kts 166°
2026-05-04 18:41 37.43345 -8.54276 29661 ft 494 kts 166°
2026-05-04 18:41 37.40153 -8.52807 30051 ft 493 kts 166°
2026-05-04 18:41 37.36928 -8.51324 30490 ft 491 kts 166°
2026-05-04 18:41 37.33718 -8.49852 30870 ft 490 kts 166°
2026-05-04 18:42 37.30518 -8.48390 31248 ft 488 kts 166°
2026-05-04 18:42 37.27325 -8.46934 31617 ft 487 kts 166°
2026-05-04 18:42 37.24141 -8.45485 31982 ft 486 kts 166°
2026-05-04 18:42 37.20997 -8.44053 32345 ft 485 kts 166°
2026-05-04 18:43 37.17824 -8.42608 32721 ft 484 kts 166°
2026-05-04 18:43 37.14659 -8.41167 33094 ft 482 kts 166°
2026-05-04 18:43 37.11502 -8.39730 33493 ft 480 kts 166°
2026-05-04 18:43 37.08400 -8.38320 33874 ft 479 kts 166°
2026-05-04 18:44 37.05264 -8.36896 34227 ft 478 kts 166°
2026-05-04 18:44 37.04208 -8.36417 34336 ft 477 kts 166°
2026-05-04 18:44 36.99012 -8.34061 34887 ft 476 kts 167°
2026-05-04 18:44 36.95896 -8.32649 35206 ft 475 kts 167°
2026-05-04 18:45 36.92790 -8.31243 35490 ft 473 kts 167°
2026-05-04 18:45 36.89737 -8.29863 35832 ft 472 kts 167°
2026-05-04 18:45 36.86656 -8.28472 36142 ft 471 kts 168°
2026-05-04 18:45 36.83583 -8.27084 36436 ft 470 kts 168°
2026-05-04 18:46 36.80509 -8.25698 36721 ft 469 kts 168°
2026-05-04 18:46 36.77436 -8.24313 37017 ft 468 kts 168°
2026-05-04 18:46 36.74364 -8.22930 37290 ft 467 kts 168°
2026-05-04 18:46 36.71338 -8.21567 37556 ft 467 kts 168°
2026-05-04 18:47 36.68285 -8.20193 37780 ft 466 kts 169°
2026-05-04 18:47 36.65224 -8.18818 38027 ft 466 kts 169°
2026-05-04 18:47 36.62173 -8.17451 38285 ft 465 kts 169°
2026-05-04 18:47 36.59126 -8.16088 38536 ft 465 kts 169°
2026-05-04 18:48 36.57103 -8.15183 38694 ft 464 kts 169°
2026-05-04 18:48 36.54067 -8.13824 38897 ft 464 kts 169°
2026-05-04 18:48 36.51029 -8.12465 39048 ft 464 kts 169°
2026-05-04 18:49 36.44931 -8.09742 39092 ft 465 kts 169°
2026-05-04 18:49 36.38854 -8.07028 39100 ft 466 kts 169°
2026-05-04 18:50 36.32750 -8.04304 39097 ft 466 kts 169°
2026-05-04 18:50 36.26673 -8.01601 39100 ft 465 kts 169°
2026-05-04 18:51 36.20556 -7.98893 39079 ft 465 kts 170°
2026-05-04 18:51 36.14477 -7.96198 39090 ft 466 kts 169°
2026-05-04 18:52 36.08359 -7.93492 39102 ft 466 kts 170°
2026-05-04 18:52 36.02236 -7.90799 39105 ft 467 kts 170°
2026-05-04 18:53 35.96120 -7.88445 39082 ft 454 kts 179°
2026-05-04 18:53 35.89914 -7.87706 39096 ft 445 kts 186°
2026-05-04 18:54 35.83721 -7.87159 39107 ft 445 kts 186°
2026-05-04 18:54 35.77577 -7.86617 39111 ft 446 kts 185°
2026-05-04 18:55 35.71385 -7.86046 39116 ft 446 kts 185°
2026-05-04 18:55 35.62084 -7.85195 39118 ft 446 kts 185°
2026-05-04 18:56 35.55894 -7.84635 39122 ft 446 kts 185°
2026-05-04 18:56 35.49729 -7.84087 39093 ft 446 kts 186°
2026-05-04 18:57 35.43530 -7.83530 39104 ft 446 kts 185°
2026-05-04 18:57 35.37333 -7.82976 39112 ft 446 kts 186°
2026-05-04 18:58 35.31180 -7.82456 39116 ft 446 kts 186°
2026-05-04 18:58 35.24977 -7.81942 39119 ft 446 kts 186°
2026-05-04 18:59 35.18785 -7.81425 39105 ft 446 kts 186°
2026-05-04 18:59 35.12588 -7.80905 39114 ft 446 kts 186°
2026-05-04 19:00 35.06427 -7.80384 39120 ft 446 kts 186°
2026-05-04 19:00 35.00237 -7.79862 39124 ft 446 kts 186°
2026-05-04 19:01 34.94043 -7.79346 39109 ft 445 kts 186°
2026-05-04 19:01 34.87858 -7.78831 39118 ft 445 kts 186°
2026-05-04 19:02 34.81666 -7.78316 39066 ft 444 kts 186°
2026-05-04 19:02 34.78627 -7.78061 38800 ft 443 kts 186°
2026-05-04 19:02 34.75540 -7.77801 38529 ft 443 kts 186°
2026-05-04 19:03 34.72455 -7.77546 38208 ft 442 kts 186°
2026-05-04 19:03 34.69422 -7.77318 37935 ft 441 kts 186°
2026-05-04 19:03 34.66356 -7.77108 37661 ft 441 kts 186°
2026-05-04 19:03 34.63274 -7.76909 37391 ft 441 kts 186°
2026-05-04 19:04 34.60199 -7.76711 37128 ft 442 kts 186°
2026-05-04 19:04 34.57161 -7.76510 36865 ft 442 kts 186°
2026-05-04 19:04 34.54085 -7.76296 36338 ft 442 kts 185°
2026-05-04 19:04 34.50995 -7.76078 35544 ft 443 kts 185°
2026-05-04 19:05 34.47905 -7.75859 34713 ft 445 kts 184°
2026-05-04 19:05 34.44810 -7.75640 33883 ft 447 kts 184°
2026-05-04 19:05 34.41732 -7.75425 32911 ft 449 kts 184°
2026-05-04 19:05 34.38592 -7.75207 31896 ft 453 kts 184°
2026-05-04 19:06 34.35420 -7.74991 30858 ft 458 kts 184°
2026-05-04 19:06 34.32220 -7.74774 30043 ft 463 kts 184°
2026-05-04 19:06 34.28982 -7.74553 29286 ft 467 kts 183°
2026-05-04 19:06 34.25726 -7.74331 28563 ft 470 kts 183°
2026-05-04 19:07 34.22453 -7.74108 27826 ft 472 kts 182°
2026-05-04 19:07 34.19166 -7.73881 27132 ft 474 kts 182°
2026-05-04 19:07 34.15903 -7.73634 26467 ft 476 kts 181°
2026-05-04 19:07 34.12582 -7.73339 25807 ft 479 kts 181°
2026-05-04 19:08 34.09251 -7.73013 25162 ft 481 kts 180°
2026-05-04 19:08 34.05896 -7.72675 24527 ft 483 kts 180°
2026-05-04 19:08 34.02555 -7.72343 23912 ft 480 kts 180°
2026-05-04 19:08 33.99229 -7.72022 23232 ft 476 kts 180°
2026-05-04 19:09 33.95943 -7.71547 22491 ft 476 kts 174°
2026-05-04 19:09 33.92743 -7.70773 21801 ft 471 kts 173°
2026-05-04 19:09 33.89545 -7.69994 21109 ft 466 kts 173°
2026-05-04 19:09 33.86356 -7.69495 20407 ft 453 kts 184°
2026-05-04 19:10 33.83292 -7.70011 19741 ft 441 kts 198°
2026-05-04 19:10 33.80348 -7.70982 19060 ft 435 kts 199°
2026-05-04 19:10 33.77441 -7.71976 18327 ft 430 kts 199°
2026-05-04 19:10 33.74574 -7.72971 17506 ft 427 kts 199°
2026-05-04 19:11 33.71760 -7.73960 16909 ft 425 kts 199°
2026-05-04 19:11 33.68928 -7.74967 16295 ft 423 kts 199°
2026-05-04 19:11 33.66122 -7.75974 15695 ft 420 kts 199°
2026-05-04 19:11 33.63321 -7.76987 15114 ft 417 kts 199°
2026-05-04 19:12 33.60551 -7.77997 14543 ft 414 kts 199°
2026-05-04 19:12 33.55084 -7.80015 13364 ft 407 kts 199°
2026-05-04 19:12 33.52419 -7.81006 12761 ft 403 kts 199°
2026-05-04 19:13 33.49734 -7.81907 12115 ft 398 kts 192°
2026-05-04 19:13 33.46977 -7.81937 11423 ft 398 kts 173°
2026-05-04 19:13 33.44346 -7.80953 10670 ft 393 kts 160°
2026-05-04 19:13 33.41882 -7.79712 9960 ft 371 kts 160°
2026-05-04 19:14 33.39607 -7.78553 9648 ft 339 kts 163°
2026-05-04 19:14 33.37441 -7.77786 9355 ft 311 kts 169°
2026-05-04 19:14 33.35430 -7.77167 9175 ft 287 kts 169°
2026-05-04 19:14 33.33538 -7.76590 8891 ft 281 kts 169°
2026-05-04 19:15 33.31649 -7.76039 8530 ft 278 kts 171°
2026-05-04 19:15 33.29767 -7.75485 8111 ft 278 kts 170°
2026-05-04 19:15 33.27887 -7.74927 7691 ft 278 kts 169°
2026-05-04 19:15 33.26001 -7.74400 7276 ft 277 kts 169°
2026-05-04 19:16 33.24141 -7.73916 6864 ft 267 kts 169°
2026-05-04 19:16 33.22360 -7.73460 6530 ft 258 kts 170°
2026-05-04 19:16 33.20630 -7.73013 6180 ft 256 kts 170°
2026-05-04 19:16 33.18888 -7.72566 5825 ft 254 kts 169°
2026-05-04 19:17 33.17163 -7.72140 5477 ft 252 kts 169°
2026-05-04 19:17 33.15445 -7.71731 5134 ft 250 kts 169°
2026-05-04 19:17 33.13734 -7.71329 4787 ft 249 kts 169°
2026-05-04 19:17 33.12054 -7.70948 4429 ft 249 kts 169°
2026-05-04 19:18 33.10346 -7.70571 4087 ft 249 kts 169°
2026-05-04 19:18 33.08661 -7.70207 4008 ft 245 kts 169°
2026-05-04 19:18 33.07018 -7.69787 3997 ft 240 kts 159°
2026-05-04 19:18 33.05726 -7.68667 4004 ft 226 kts 123°
2026-05-04 19:19 33.05202 -7.66977 4006 ft 217 kts 90°
2026-05-04 19:19 33.05280 -7.65195 4010 ft 214 kts 82°
2026-05-04 19:19 33.05470 -7.63435 3999 ft 214 kts 79°
2026-05-04 19:19 33.05925 -7.61769 4007 ft 210 kts 56°
2026-05-04 19:20 33.06909 -7.60536 4037 ft 199 kts 37°
2026-05-04 19:20 33.07966 -7.59574 4019 ft 190 kts 35°
2026-05-04 19:20 33.09023 -7.58664 3998 ft 185 kts 35°
2026-05-04 19:20 33.10055 -7.57784 4013 ft 181 kts 34°
2026-05-04 19:21 33.11075 -7.56908 4011 ft 181 kts 35°
2026-05-04 19:21 33.12109 -7.56019 4009 ft 184 kts 35°
2026-05-04 19:21 33.13159 -7.55125 4013 ft 185 kts 34°
2026-05-04 19:21 33.14195 -7.54242 4013 ft 184 kts 34°
2026-05-04 19:22 33.15240 -7.53350 4014 ft 185 kts 33°
2026-05-04 19:22 33.16410 -7.52742 4017 ft 184 kts 12°
2026-05-04 19:22 33.17654 -7.52711 4034 ft 175 kts 352°
2026-05-04 19:22 33.18821 -7.53079 3905 ft 175 kts 346°
2026-05-04 19:23 33.19982 -7.53479 3716 ft 171 kts 345°
2026-05-04 19:23 33.21132 -7.53873 3492 ft 172 kts 346°
2026-05-04 19:23 33.22278 -7.54265 3275 ft 171 kts 346°
2026-05-04 19:23 33.23394 -7.54646 3049 ft 169 kts 345°
2026-05-04 19:24 33.24525 -7.55032 2821 ft 168 kts 346°
2026-05-04 19:24 33.25624 -7.55408 2593 ft 158 kts 348°
2026-05-04 19:24 33.26661 -7.55763 2397 ft 152 kts 348°
2026-05-04 19:24 33.27700 -7.56116 2185 ft 156 kts 347°
2026-05-04 19:25 33.28739 -7.56471 1978 ft 156 kts 347°
2026-05-04 19:25 33.29743 -7.56815 1773 ft 141 kts 348°
2026-05-04 19:25 33.30636 -7.57121 1594 ft 131 kts 348°
2026-05-04 19:25 33.31515 -7.57406 1415 ft 129 kts 348°
2026-05-04 19:26 33.32375 -7.57721 1259 ft 127 kts 346°
2026-05-04 19:26 33.33229 -7.57999 1081 ft 129 kts 344°
2026-05-04 19:26 33.34082 -7.58301 928 ft 128 kts 343°
2026-05-04 19:26 33.34942 -7.58598 730 ft 128 kts 345°
2026-05-04 19:27 33.35767 -7.58876 652 ft 112 kts 345°
2026-05-04 19:27 33.36358 -7.59079 652 ft 69 kts 344°
2026-05-04 19:27 33.36726 -7.59198 650 ft 48 kts 345°
2026-05-04 19:27 33.37027 -7.59289 653 ft 40 kts 347°
2026-05-04 19:28 33.37246 -7.59306 653 ft 27 kts
2026-05-04 19:28 33.37410 -7.59264 655 ft 23 kts 14°
2026-05-04 19:28 33.37533 -7.59227 652 ft 16 kts 15°
2026-05-04 19:28 33.37620 -7.59199 650 ft 11 kts 16°
2026-05-04 19:29 33.37707 -7.59170 649 ft 15 kts 17°
2026-05-04 19:29 33.37804 -7.59102 645 ft 16 kts 47°
2026-05-04 19:29 33.37839 -7.59019 649 ft 6 kts 72°
2026-05-04 19:29 33.37840 -7.59017 649 ft 0 kts 72°
2026-05-04 19:30 33.37841 -7.59012 649 ft 5 kts 73°
2026-05-04 19:30 33.37862 -7.58912 653 ft 14 kts 77°
2026-05-04 19:31 33.37890 -7.58787 655 ft 17 kts 73°
2026-05-04 19:31 33.37899 -7.58642 654 ft 19 kts 112°
2026-05-04 19:31 33.37824 -7.58517 653 ft 18 kts 134°
2026-05-04 19:31 33.37717 -7.58461 653 ft 16 kts 162°
2026-05-04 19:32 33.37612 -7.58434 653 ft 15 kts 174°
2026-05-04 19:32 33.37508 -7.58405 653 ft 15 kts 165°
2026-05-04 19:32 33.37409 -7.58371 653 ft 14 kts 163°
2026-05-04 19:32 33.37369 -7.58308 653 ft 6 kts 71°
2026-05-04 19:33 33.37388 -7.58261 653 ft 6 kts 65°
2026-05-04 19:33 33.37391 -7.58252 653 ft 0 kts 65°